| time (UTC) | temp F | wind direction | speed MPH | gust MPH | rain 1hr in | rain 24hr in | rain mn in | humidity % | barometer mb |
| 20260906103052 | 51 | 0 | 0.0 | 0.0 | 0.00 | 0.00 | 0.00 | 75 | 1015.0 |
| 20260906102536 | 51 | 0 | 0.0 | 0.0 | 0.00 | 0.00 | 0.00 | 74 | 1014.9 |
| 20260906102035 | 51 | 0 | 0.0 | 3.0 | 0.00 | 0.00 | 0.00 | 74 | 1015.0 |
| 20260906101557 | 51 | 0 | 0.0 | 3.0 | 0.00 | 0.00 | 0.00 | 73 | 1015.0 |
| 20260906101039 | 52 | 0 | 2.0 | 5.0 | 0.00 | 0.00 | 0.00 | 72 | 1015.0 |
| 20260906100537 | 52 | 157 | 0.0 | 5.0 | 0.00 | 0.00 | 0.00 | 71 | 1014.8 |
| 20260906100100 | 53 | 157 | 1.0 | 5.0 | 0.00 | 0.00 | 0.00 | 72 | 1015.0 |
| 20260906095537 | 53 | 51 | 1.0 | 7.0 | 0.00 | 0.00 | 0.00 | 71 | 1015.0 |
| 20260906095036 | 53 | 0 | 2.0 | 7.0 | 0.00 | 0.00 | 0.00 | 71 | 1014.9 |
| 20260906094552 | 53 | 51 | 2.0 | 5.0 | 0.00 | 0.00 | 0.00 | 72 | 1014.9 |
| 20260906094035 | 53 | 51 | 0.0 | 5.0 | 0.00 | 0.00 | 0.00 | 71 | 1014.9 |
| 20260906093536 | 53 | 51 | 0.0 | 6.0 | 0.00 | 0.00 | 0.00 | 71 | 1014.9 |
| 20260906093051 | 53 | 0 | 0.0 | 6.0 | 0.00 | 0.00 | 0.00 | 71 | 1014.8 |
| 20260906092535 | 53 | 51 | 3.0 | 6.0 | 0.00 | 0.00 | 0.00 | 72 | 1014.7 |
| 20260906092036 | 53 | 51 | 2.0 | 5.0 | 0.00 | 0.00 | 0.00 | 71 | 1014.9 |
| 20260906091549 | 53 | 51 | 1.0 | 6.0 | 0.00 | 0.00 | 0.00 | 69 | 1015.0 |
| 20260906091034 | 54 | 0 | 2.0 | 6.0 | 0.00 | 0.00 | 0.00 | 70 | 1015.1 |
| 20260906090534 | 54 | 0 | 0.0 | 7.0 | 0.00 | 0.00 | 0.00 | 68 | 1015.1 |
| 20260906090058 | 54 | 51 | 2.0 | 7.0 | 0.00 | 0.00 | 0.00 | 68 | 1015.2 |
| 20260906085533 | 54 | 51 | 3.0 | 4.0 | 0.00 | 0.00 | 0.00 | 69 | 1015.1 |
| 20260906085035 | 54 | 0 | 1.0 | 5.0 | 0.00 | 0.00 | 0.00 | 69 | 1015.3 |
| 20260906084556 | 54 | 51 | 1.0 | 5.0 | 0.00 | 0.00 | 0.00 | 68 | 1015.3 |
| 20260906084035 | 54 | 0 | 0.0 | 3.0 | 0.00 | 0.00 | 0.00 | 68 | 1015.4 |
| 20260906083535 | 54 | 0 | 1.0 | 4.0 | 0.00 | 0.00 | 0.00 | 68 | 1015.4 |
| 20260906083049 | 55 | 0 | 1.0 | 6.0 | 0.00 | 0.00 | 0.00 | 67 | 1015.5 |
| 20260906082534 | 55 | 51 | 2.0 | 6.0 | 0.00 | 0.00 | 0.00 | 67 | 1015.6 |
| 20260906082030 | 55 | 51 | 4.0 | 6.0 | 0.00 | 0.00 | 0.00 | 67 | 1015.6 |
| 20260906081549 | 55 | 51 | 2.0 | 4.0 | 0.00 | 0.00 | 0.00 | 66 | 1015.6 |
| 20260906081034 | 56 | 51 | 2.0 | 7.0 | 0.00 | 0.00 | 0.00 | 65 | 1015.8 |
| 20260906080531 | 56 | 51 | 1.0 | 7.0 | 0.00 | 0.00 | 0.00 | 64 | 1015.7 |
| 20260906080058 | 57 | 51 | 5.0 | 7.0 | 0.00 | 0.00 | 0.00 | 64 | 1015.7 |
| 20260906075534 | 57 | 51 | 2.0 | 5.0 | 0.00 | 0.00 | 0.00 | 64 | 1015.6 |
| 20260906075034 | 57 | 51 | 1.0 | 3.0 | 0.00 | 0.00 | 0.00 | 63 | 1015.7 |
| 20260906074553 | 57 | 0 | 0.0 | 4.0 | 0.00 | 0.00 | 0.00 | 63 | 1015.9 |
| 20260906074034 | 57 | 51 | 3.0 | 4.0 | 0.00 | 0.00 | 0.00 | 63 | 1015.9 |
| 20260906073534 | 57 | 51 | 2.0 | 4.0 | 0.00 | 0.00 | 0.00 | 63 | 1015.9 |
| 20260906073052 | 58 | 51 | 1.0 | 5.0 | 0.00 | 0.00 | 0.00 | 62 | 1015.8 |
| 20260906072531 | 58 | 51 | 2.0 | 5.0 | 0.00 | 0.00 | 0.00 | 62 | 1015.8 |
| 20260906072033 | 58 | 51 | 3.0 | 5.0 | 0.00 | 0.00 | 0.00 | 62 | 1015.8 |
| 20260906071549 | 59 | 51 | 2.0 | 4.0 | 0.00 | 0.00 | 0.00 | 60 | 1015.7 |
| 20260906071033 | 59 | 51 | 2.0 | 4.0 | 0.00 | 0.00 | 0.00 | 60 | 1015.7 |
| 20260906070535 | 59 | 51 | 0.0 | 5.0 | 0.00 | 0.00 | 0.00 | 60 | 1015.7 |
| 20260906070048 | 59 | 51 | 2.0 | 11.0 | 0.00 | 0.00 | 0.00 | 60 | 1015.7 |
| 20260906065535 | 59 | 51 | 6.0 | 12.0 | 0.00 | 0.00 | 0.00 | 59 | 1015.8 |
| 20260906065031 | 59 | 51 | 8.0 | 12.0 | 0.00 | 0.00 | 0.00 | 59 | 1015.8 |
| 20260906064552 | 59 | 51 | 5.0 | 10.0 | 0.00 | 0.00 | 0.00 | 59 | 1015.9 |
| 20260906064034 | 59 | 51 | 5.0 | 11.0 | 0.00 | 0.00 | 0.00 | 59 | 1015.9 |
| 20260906063537 | 59 | 51 | 7.0 | 11.0 | 0.00 | 0.00 | 0.00 | 59 | 1016.1 |
| 20260906063051 | 59 | 51 | 6.0 | 11.0 | 0.00 | 0.00 | 0.00 | 59 | 1016.1 |
| 20260906062533 | 59 | 51 | 5.0 | 11.0 | 0.00 | 0.00 | 0.00 | 58 | 1016.2 |
| 20260906062033 | 59 | 51 | 6.0 | 11.0 | 0.00 | 0.00 | 0.00 | 58 | 1016.3 |
| 20260906061600 | 59 | 51 | 5.0 | 10.0 | 0.00 | 0.00 | 0.00 | 59 | 1016.4 |
| 20260906061035 | 59 | 51 | 5.0 | 10.0 | 0.00 | 0.00 | 0.00 | 58 | 1016.3 |
| 20260906060534 | 59 | 51 | 3.0 | 13.0 | 0.00 | 0.00 | 0.00 | 57 | 1016.5 |
| 20260906060059 | 60 | 51 | 5.0 | 13.0 | 0.00 | 0.00 | 0.00 | 56 | 1016.4 |
| 20260906055535 | 60 | 51 | 7.0 | 14.0 | 0.00 | 0.00 | 0.00 | 55 | 1016.3 |
| 20260906055035 | 60 | 51 | 9.0 | 16.0 | 0.00 | 0.00 | 0.00 | 55 | 1016.1 |
| 20260906054605 | 60 | 51 | 10.0 | 16.0 | 0.00 | 0.00 | 0.00 | 55 | 1016.2 |
| 20260906054034 | 60 | 51 | 10.0 | 15.0 | 0.00 | 0.00 | 0.00 | 56 | 1016.3 |
| 20260906053530 | 60 | 88 | 9.0 | 13.0 | 0.00 | 0.00 | 0.00 | 57 | 1016.4 |
| 20260906053051 | 59 | 109 | 8.0 | 12.0 | 0.00 | 0.00 | 0.00 | 59 | 1016.6 |
| 20260906052534 | 58 | 114 | 3.0 | 8.0 | 0.00 | 0.00 | 0.00 | 63 | 1016.8 |
| 20260906052034 | 57 | 114 | 3.0 | 6.0 | 0.00 | 0.00 | 0.00 | 63 | 1017.0 |
| 20260906051549 | 57 | 114 | 3.0 | 4.0 | 0.00 | 0.00 | 0.00 | 63 | 1017.1 |
| 20260906051030 | 57 | 114 | 1.0 | 6.0 | 0.00 | 0.00 | 0.00 | 63 | 1017.2 |
| 20260906050530 | 58 | 114 | 2.0 | 8.0 | 0.00 | 0.00 | 0.00 | 63 | 1017.1 |
| 20260906050105 | 58 | 114 | 3.0 | 9.0 | 0.00 | 0.00 | 0.00 | 63 | 1017.2 |
| 20260906045530 | 58 | 114 | 5.0 | 9.0 | 0.00 | 0.00 | 0.00 | 63 | 1017.1 |
| 20260906045035 | 57 | 114 | 5.0 | 8.0 | 0.00 | 0.00 | 0.00 | 64 | 1017.1 |
| 20260906044552 | 56 | 114 | 1.0 | 7.0 | 0.00 | 0.00 | 0.00 | 64 | 1017.0 |
| 20260906044034 | 56 | 0 | 4.0 | 7.0 | 0.00 | 0.00 | 0.00 | 63 | 1016.9 |
| 20260906043534 | 56 | 114 | 4.0 | 7.0 | 0.00 | 0.00 | 0.00 | 61 | 1016.8 |
| 20260906043049 | 58 | 0 | 0.0 | 2.0 | 0.00 | 0.00 | 0.00 | 60 | 1016.8 |
| 20260906042535 | 58 | 0 | 0.0 | 0.0 | 0.00 | 0.00 | 0.00 | 60 | 1016.8 |
| 20260906042033 | 58 | 0 | 0.0 | 0.0 | 0.00 | 0.00 | 0.00 | 59 | 1016.8 |
| 20260906041558 | 58 | 0 | 0.0 | 0.0 | 0.00 | 0.00 | 0.00 | 59 | 1016.8 |
| 20260906041034 | 58 | 0 | 0.0 | 2.0 | 0.00 | 0.00 | 0.00 | 60 | 1016.9 |
| 20260906040534 | 58 | 0 | 0.0 | 2.0 | 0.00 | 0.00 | 0.00 | 59 | 1016.8 |
| 20260906040103 | 58 | 0 | 0.0 | 4.0 | 0.00 | 0.00 | 0.00 | 60 | 1016.6 |
| 20260906035534 | 58 | 114 | 0.0 | 4.0 | 0.00 | 0.00 | 0.00 | 61 | 1016.6 |
| 20260906035034 | 58 | 0 | 2.0 | 4.0 | 0.00 | 0.00 | 0.00 | 62 | 1016.8 |
| 20260906034554 | 58 | 114 | 3.0 | 4.0 | 0.00 | 0.00 | 0.00 | 61 | 1016.8 |
| 20260906034031 | 58 | 114 | 0.0 | 6.0 | 0.00 | 0.00 | 0.00 | 60 | 1016.7 |
| 20260906033533 | 59 | 114 | 3.0 | 6.0 | 0.00 | 0.00 | 0.00 | 60 | 1016.7 |
| 20260906033051 | 59 | 114 | 2.0 | 6.0 | 0.00 | 0.00 | 0.00 | 60 | 1016.6 |
| 20260906032533 | 59 | 114 | 4.0 | 6.0 | 0.00 | 0.00 | 0.00 | 59 | 1016.5 |
| 20260906032034 | 59 | 114 | 2.0 | 6.0 | 0.00 | 0.00 | 0.00 | 58 | 1016.5 |
| 20260906031612 | 59 | 114 | 2.0 | 4.0 | 0.00 | 0.00 | 0.00 | 58 | 1016.5 |
| 20260906031037 | 59 | 114 | 1.0 | 7.0 | 0.00 | 0.00 | 0.00 | 57 | 1016.4 |
| 20260906030534 | 59 | 114 | 1.0 | 7.0 | 0.00 | 0.00 | 0.00 | 55 | 1016.5 |
| 20260906030054 | 59 | 114 | 3.0 | 7.0 | 0.00 | 0.00 | 0.00 | 55 | 1016.5 |
| 20260906025534 | 60 | 114 | 3.0 | 7.0 | 0.00 | 0.00 | 0.00 | 54 | 1016.5 |
| 20260906025032 | 61 | 114 | 2.0 | 7.0 | 0.00 | 0.00 | 0.00 | 52 | 1016.5 |
| 20260906024601 | 62 | 114 | 5.0 | 8.0 | 0.00 | 0.00 | 0.00 | 51 | 1016.5 |
| 20260906024031 | 62 | 114 | 4.0 | 8.0 | 0.00 | 0.00 | 0.00 | 51 | 1016.5 |
| 20260906023534 | 63 | 114 | 4.0 | 8.0 | 0.00 | 0.00 | 0.00 | 50 | 1016.3 |
| 20260906023102 | 64 | 0 | 0.0 | 3.0 | 0.00 | 0.00 | 0.00 | 49 | 1016.3 |
| 20260906022534 | 64 | 114 | 0.0 | 3.0 | 0.00 | 0.00 | 0.00 | 49 | 1016.2 |
| 20260906022034 | 65 | 114 | 0.0 | 3.0 | 0.00 | 0.00 | 0.00 | 48 | 1016.3 |
| 20260906021607 | 65 | 0 | 0.0 | 4.0 | 0.00 | 0.00 | 0.00 | 48 | 1016.3 |
| 20260906021033 | 65 | 114 | 2.0 | 6.0 | 0.00 | 0.00 | 0.00 | 47 | 1016.4 |
| 20260906020535 | 66 | 114 | 3.0 | 6.0 | 0.00 | 0.00 | 0.00 | 47 | 1016.4 |
| 20260906015534 | 67 | 114 | 2.0 | 7.0 | 0.00 | 0.00 | 0.00 | 45 | 1016.4 |
| 20260906015034 | 67 | 114 | 4.0 | 8.0 | 0.00 | 0.00 | 0.00 | 45 | 1016.3 |
| 20260906014556 | 68 | 114 | 5.0 | 9.0 | 0.00 | 0.00 | 0.00 | 44 | 1016.4 |
| 20260906014036 | 68 | 114 | 6.0 | 9.0 | 0.00 | 0.00 | 0.00 | 43 | 1016.4 |
| 20260906013537 | 68 | 114 | 6.0 | 10.0 | 0.00 | 0.00 | 0.00 | 43 | 1016.4 |
| 20260906013056 | 69 | 114 | 6.0 | 10.0 | 0.00 | 0.00 | 0.00 | 43 | 1016.3 |
| 20260906012530 | 69 | 114 | 6.0 | 9.0 | 0.00 | 0.00 | 0.00 | 43 | 1016.3 |
| 20260906012031 | 70 | 114 | 6.0 | 9.0 | 0.00 | 0.00 | 0.00 | 42 | 1016.3 |
| 20260906011551 | 70 | 114 | 5.0 | 9.0 | 0.00 | 0.00 | 0.00 | 41 | 1016.3 |
| 20260906011032 | 71 | 114 | 1.0 | 4.0 | 0.00 | 0.00 | 0.00 | 39 | 1016.3 |
| 20260906010533 | 71 | 114 | 1.0 | 3.0 | 0.00 | 0.00 | 0.00 | 39 | 1016.4 |
| 20260906010053 | 71 | 114 | 1.0 | 3.0 | 0.00 | 0.00 | 0.00 | 38 | 1016.3 |
| 20260906005530 | 71 | 0 | 0.0 | 8.0 | 0.00 | 0.00 | 0.00 | 39 | 1016.1 |
| 20260906005033 | 71 | 114 | 3.0 | 8.0 | 0.00 | 0.00 | 0.00 | 39 | 1016.1 |
| 20260906004603 | 71 | 114 | 2.0 | 8.0 | 0.00 | 0.00 | 0.00 | 39 | 1016.1 |
| 20260906004032 | 71 | 114 | 5.0 | 9.0 | 0.00 | 0.00 | 0.00 | 39 | 1016.2 |
| 20260906003534 | 70 | 114 | 4.0 | 11.0 | 0.00 | 0.00 | 0.00 | 39 | 1016.2 |
| 20260906003054 | 71 | 114 | 6.0 | 11.0 | 0.00 | 0.00 | 0.00 | 40 | 1016.1 |
| 20260906002530 | 71 | 114 | 7.0 | 11.0 | 0.00 | 0.00 | 0.00 | 39 | 1016.1 |
| 20260906002034 | 71 | 114 | 6.0 | 11.0 | 0.00 | 0.00 | 0.00 | 37 | 1016.2 |
| 20260906001602 | 71 | 114 | 5.0 | 11.0 | 0.00 | 0.00 | 0.00 | 39 | 1016.2 |
| 20260906001030 | 71 | 114 | 3.0 | 9.0 | 0.00 | 0.00 | 0.00 | 39 | 1016.2 |
| 20260906000531 | 71 | 114 | 3.0 | 8.0 | 0.00 | 0.00 | 0.00 | 39 | 1016.2 |
| 20260906000107 | 71 | 114 | 4.0 | 8.0 | 0.00 | 0.00 | 0.00 | 39 | 1016.2 |
| 20260905235534 | 70 | 114 | 3.0 | 8.0 | 0.00 | 0.00 | 0.00 | 41 | 1016.2 |
| 20260905235034 | 71 | 114 | 4.0 | 8.0 | 0.00 | 0.00 | 0.00 | 40 | 1016.2 |
| 20260905234602 | 70 | 114 | 1.0 | 7.0 | 0.00 | 0.00 | 0.00 | 42 | 1016.1 |
| 20260905234035 | 70 | 114 | 3.0 | 8.0 | 0.00 | 0.00 | 0.00 | 42 | 1016.2 |
| 20260905233537 | 70 | 114 | 1.0 | 9.0 | 0.00 | 0.00 | 0.00 | 42 | 1016.1 |
| 20260905233055 | 70 | 114 | 5.0 | 9.0 | 0.00 | 0.00 | 0.00 | 41 | 1016.3 |
| 20260905232534 | 69 | 114 | 3.0 | 11.0 | 0.00 | 0.00 | 0.00 | 43 | 1016.3 |
| 20260905232036 | 69 | 114 | 5.0 | 13.0 | 0.00 | 0.00 | 0.00 | 44 | 1016.3 |
| 20260905231601 | 69 | 114 | 7.0 | 13.0 | 0.00 | 0.00 | 0.00 | 44 | 1016.4 |
| 20260905231033 | 70 | 112 | 8.0 | 14.0 | 0.00 | 0.00 | 0.00 | 43 | 1016.4 |
| 20260905230531 | 70 | 117 | 5.0 | 14.0 | 0.00 | 0.00 | 0.00 | 43 | 1016.4 |
| 20260905225537 | 70 | 117 | 6.0 | 11.0 | 0.00 | 0.00 | 0.00 | 42 | 1016.6 |
| 20260905225036 | 70 | 117 | 7.0 | 11.0 | 0.00 | 0.00 | 0.00 | 44 | 1016.6 |
| 20260905224552 | 70 | 117 | 3.0 | 12.0 | 0.00 | 0.00 | 0.00 | 44 | 1016.5 |
| 20260905224034 | 70 | 117 | 8.0 | 13.0 | 0.00 | 0.00 | 0.00 | 43 | 1016.6 |
| 20260905223531 | 70 | 117 | 7.0 | 13.0 | 0.00 | 0.00 | 0.00 | 45 | 1016.6 |
| 20260905223100 | 69 | 117 | 8.0 | 13.0 | 0.00 | 0.00 | 0.00 | 45 | 1016.8 |
| 20260905222534 | 69 | 117 | 8.0 | 13.0 | 0.00 | 0.00 | 0.00 | 46 | 1017.1 |
| 20260905222034 | 69 | 117 | 9.0 | 12.0 | 0.00 | 0.00 | 0.00 | 46 | 1017.1 |
| 20260905221557 | 68 | 117 | 9.0 | 12.0 | 0.00 | 0.00 | 0.00 | 47 | 1017.1 |
| 20260905221034 | 68 | 117 | 5.0 | 11.0 | 0.00 | 0.00 | 0.00 | 47 | 1017.1 |
| 20260905220531 | 68 | 117 | 6.0 | 12.0 | 0.00 | 0.00 | 0.00 | 47 | 1017.0 |
| 20260905220056 | 68 | 117 | 8.0 | 12.0 | 0.00 | 0.00 | 0.00 | 47 | 1017.0 |
| 20260905215534 | 68 | 117 | 6.0 | 12.0 | 0.00 | 0.00 | 0.00 | 47 | 1017.0 |
| 20260905215037 | 68 | 117 | 7.0 | 12.0 | 0.00 | 0.00 | 0.00 | 46 | 1017.0 |
| 20260905214600 | 68 | 117 | 7.0 | 12.0 | 0.00 | 0.00 | 0.00 | 46 | 1017.1 |
| 20260905214035 | 68 | 117 | 8.0 | 12.0 | 0.00 | 0.00 | 0.00 | 47 | 1017.0 |
| 20260905213534 | 68 | 117 | 3.0 | 10.0 | 0.00 | 0.00 | 0.00 | 47 | 1017.1 |
| 20260905213058 | 68 | 117 | 7.0 | 10.0 | 0.00 | 0.00 | 0.00 | 48 | 1017.1 |
| 20260905212532 | 68 | 117 | 5.0 | 12.0 | 0.00 | 0.00 | 0.00 | 47 | 1017.0 |
| 20260905212034 | 68 | 117 | 8.0 | 13.0 | 0.00 | 0.00 | 0.00 | 48 | 1017.1 |
| 20260905211609 | 68 | 117 | 7.0 | 13.0 | 0.00 | 0.00 | 0.00 | 47 | 1017.2 |
| 20260905211034 | 68 | 117 | 7.0 | 12.0 | 0.00 | 0.00 | 0.00 | 47 | 1017.0 |
| 20260905210535 | 68 | 117 | 7.0 | 12.0 | 0.00 | 0.00 | 0.00 | 48 | 1017.1 |
| 20260905210103 | 68 | 117 | 5.0 | 12.0 | 0.00 | 0.00 | 0.00 | 48 | 1017.0 |
| 20260905205535 | 68 | 117 | 1.0 | 6.0 | 0.00 | 0.00 | 0.00 | 47 | 1016.9 |
| 20260905205035 | 68 | 117 | 3.0 | 9.0 | 0.00 | 0.00 | 0.00 | 47 | 1017.0 |
| 20260905204611 | 68 | 117 | 2.0 | 11.0 | 0.00 | 0.00 | 0.00 | 47 | 1017.0 |
| 20260905204121 | 68 | 117 | 6.0 | 11.0 | 0.00 | 0.00 | 0.00 | 47 | 1016.9 |
| 20260905203537 | 68 | 117 | 5.0 | 11.0 | 0.00 | 0.00 | 0.00 | 46 | 1016.9 |
| 20260905203113 | 68 | 117 | 4.0 | 12.0 | 0.00 | 0.00 | 0.00 | 46 | 1016.8 |
| 20260905202536 | 68 | 117 | 5.0 | 12.0 | 0.00 | 0.00 | 0.00 | 46 | 1016.9 |
| 20260905202034 | 70 | 117 | 7.0 | 12.0 | 0.00 | 0.00 | 0.00 | 45 | 1016.8 |
| 20260905201605 | 69 | 117 | 4.0 | 12.0 | 0.00 | 0.00 | 0.00 | 46 | 1016.8 |
| 20260905201038 | 69 | 117 | 8.0 | 12.0 | 0.00 | 0.00 | 0.00 | 45 | 1016.9 |
| 20260905200531 | 69 | 117 | 2.0 | 7.0 | 0.00 | 0.00 | 0.00 | 48 | 1016.9 |
| 20260905200110 | 68 | 117 | 2.0 | 12.0 | 0.00 | 0.00 | 0.00 | 48 | 1017.0 |
| 20260905195535 | 68 | 0 | 4.0 | 12.0 | 0.00 | 0.00 | 0.00 | 49 | 1017.1 |
| 20260905195033 | 68 | 117 | 7.0 | 11.0 | 0.00 | 0.00 | 0.00 | 48 | 1017.0 |
| 20260905194607 | 68 | 117 | 4.0 | 10.0 | 0.00 | 0.00 | 0.00 | 48 | 1017.0 |
| 20260905194037 | 68 | 117 | 2.0 | 9.0 | 0.00 | 0.00 | 0.00 | 48 | 1017.1 |
| 20260905193533 | 67 | 117 | 2.0 | 13.0 | 0.00 | 0.00 | 0.00 | 50 | 1017.2 |
| 20260905193100 | 67 | 117 | 8.0 | 13.0 | 0.00 | 0.00 | 0.00 | 49 | 1017.2 |
| 20260905192536 | 66 | 101 | 4.0 | 9.0 | 0.00 | 0.00 | 0.00 | 50 | 1017.3 |
| 20260905192034 | 66 | 0 | 2.0 | 9.0 | 0.00 | 0.00 | 0.00 | 50 | 1017.3 |
| 20260905191556 | 66 | 101 | 5.0 | 9.0 | 0.00 | 0.00 | 0.00 | 50 | 1017.3 |
| 20260905191036 | 66 | 101 | 3.0 | 7.0 | 0.00 | 0.00 | 0.00 | 52 | 1017.4 |
| 20260905190533 | 65 | 101 | 4.0 | 12.0 | 0.00 | 0.00 | 0.00 | 53 | 1017.4 |
| 20260905190054 | 65 | 101 | 6.0 | 12.0 | 0.00 | 0.00 | 0.00 | 53 | 1017.4 |
| 20260905185534 | 66 | 90 | 4.0 | 9.0 | 0.00 | 0.00 | 0.00 | 52 | 1017.4 |
| 20260905185033 | 65 | 0 | 2.0 | 12.0 | 0.00 | 0.00 | 0.00 | 53 | 1017.6 |
| 20260905184555 | 65 | 90 | 7.0 | 12.0 | 0.00 | 0.00 | 0.00 | 54 | 1017.7 |
| 20260905184030 | 64 | 90 | 1.0 | 11.0 | 0.00 | 0.00 | 0.00 | 56 | 1017.8 |
| 20260905183535 | 64 | 90 | 7.0 | 11.0 | 0.00 | 0.00 | 0.00 | 55 | 1017.7 |
| 20260905183056 | 64 | 90 | 5.0 | 11.0 | 0.00 | 0.00 | 0.00 | 56 | 1017.8 |
| 20260905182534 | 64 | 90 | 4.0 | 10.0 | 0.00 | 0.00 | 0.00 | 58 | 1017.8 |
| 20260905182034 | 63 | 90 | 3.0 | 10.0 | 0.00 | 0.00 | 0.00 | 58 | 1018.0 |
| 20260905181555 | 63 | 84 | 3.0 | 9.0 | 0.00 | 0.00 | 0.00 | 58 | 1017.9 |
| 20260905181034 | 63 | 84 | 4.0 | 10.0 | 0.00 | 0.00 | 0.00 | 58 | 1017.9 |
| 20260905180534 | 63 | 84 | 5.0 | 10.0 | 0.00 | 0.00 | 0.00 | 58 | 1017.9 |
| 20260905175535 | 63 | 0 | 1.0 | 8.0 | 0.00 | 0.00 | 0.00 | 59 | 1017.8 |
| 20260905175036 | 62 | 81 | 4.0 | 8.0 | 0.00 | 0.00 | 0.00 | 60 | 1017.8 |
| 20260905174603 | 62 | 81 | 4.0 | 8.0 | 0.00 | 0.00 | 0.00 | 60 | 1017.9 |
| 20260905174033 | 62 | 81 | 4.0 | 8.0 | 0.00 | 0.00 | 0.00 | 60 | 1017.9 |
| 20260905173549 | 62 | 81 | 2.0 | 5.0 | 0.00 | 0.00 | 0.00 | 61 | 1017.9 |
| 20260905173104 | 61 | 0 | 0.0 | 3.0 | 0.00 | 0.00 | 0.00 | 62 | 1017.8 |
| 20260905172535 | 61 | 81 | 0.0 | 3.0 | 0.00 | 0.00 | 0.00 | 63 | 1017.9 |
| 20260905172038 | 60 | 0 | 0.0 | 8.0 | 0.00 | 0.00 | 0.00 | 64 | 1017.8 |
| 20260905171557 | 60 | 81 | 1.0 | 8.0 | 0.00 | 0.00 | 0.00 | 64 | 1017.8 |
| 20260905171034 | 60 | 81 | 3.0 | 8.0 | 0.00 | 0.00 | 0.00 | 64 | 1017.8 |
| 20260905170531 | 60 | 81 | 2.0 | 7.0 | 0.00 | 0.00 | 0.00 | 66 | 1017.8 |
| 20260905170052 | 59 | 81 | 2.0 | 9.0 | 0.00 | 0.00 | 0.00 | 66 | 1017.8 |
| 20260905165533 | 59 | 81 | 4.0 | 9.0 | 0.00 | 0.00 | 0.00 | 66 | 1017.8 |
| 20260905165031 | 59 | 81 | 3.0 | 8.0 | 0.00 | 0.00 | 0.00 | 67 | 1017.8 |
| 20260905164552 | 59 | 81 | 3.0 | 7.0 | 0.00 | 0.00 | 0.00 | 68 | 1017.9 |
| 20260905164035 | 59 | 81 | 3.0 | 8.0 | 0.00 | 0.00 | 0.00 | 67 | 1018.0 |
| 20260905163533 | 59 | 81 | 5.0 | 9.0 | 0.00 | 0.00 | 0.00 | 68 | 1017.9 |
| 20260905163059 | 59 | 81 | 5.0 | 9.0 | 0.00 | 0.00 | 0.00 | 67 | 1017.8 |
| 20260905162535 | 59 | 81 | 4.0 | 9.0 | 0.00 | 0.00 | 0.00 | 68 | 1017.8 |
| 20260905162034 | 58 | 81 | 0.0 | 2.0 | 0.00 | 0.00 | 0.00 | 68 | 1017.7 |
| 20260905161558 | 58 | 0 | 0.0 | 2.0 | 0.00 | 0.00 | 0.00 | 68 | 1017.6 |
| 20260905161034 | 58 | 0 | 0.0 | 3.0 | 0.00 | 0.00 | 0.00 | 68 | 1017.8 |
| 20260905160534 | 57 | 0 | 0.0 | 3.0 | 0.00 | 0.00 | 0.00 | 69 | 1017.8 |
| 20260905160052 | 57 | 0 | 1.0 | 3.0 | 0.00 | 0.00 | 0.00 | 69 | 1017.8 |
| 20260905155531 | 57 | 80 | 0.0 | 4.0 | 0.00 | 0.00 | 0.00 | 69 | 1017.9 |
| 20260905155033 | 57 | 80 | 0.0 | 4.0 | 0.00 | 0.00 | 0.00 | 71 | 1017.8 |
| 20260905154556 | 56 | 0 | 1.0 | 5.0 | 0.00 | 0.00 | 0.00 | 72 | 1017.7 |
| 20260905154039 | 56 | 80 | 2.0 | 6.0 | 0.00 | 0.00 | 0.00 | 72 | 1017.7 |
| 20260905153536 | 55 | 80 | 3.0 | 7.0 | 0.00 | 0.00 | 0.00 | 74 | 1017.5 |
| 20260905153057 | 55 | 80 | 2.0 | 10.0 | 0.00 | 0.00 | 0.00 | 75 | 1017.4 |
| 20260905152535 | 55 | 80 | 5.0 | 10.0 | 0.00 | 0.00 | 0.00 | 76 | 1017.3 |
| 20260905152034 | 54 | 80 | 3.0 | 5.0 | 0.00 | 0.00 | 0.00 | 77 | 1017.2 |
| 20260905151559 | 54 | 0 | 1.0 | 5.0 | 0.00 | 0.00 | 0.00 | 78 | 1017.2 |
| 20260905151035 | 53 | 0 | 0.0 | 3.0 | 0.00 | 0.00 | 0.00 | 80 | 1017.3 |
| 20260905150534 | 53 | 80 | 1.0 | 3.0 | 0.00 | 0.00 | 0.00 | 80 | 1017.4 |
| 20260905150051 | 53 | 0 | 0.0 | 2.0 | 0.00 | 0.00 | 0.00 | 81 | 1017.4 |
| 20260905145535 | 52 | 0 | 0.0 | 3.0 | 0.00 | 0.00 | 0.00 | 81 | 1017.3 |
| 20260905145034 | 52 | 80 | 1.0 | 4.0 | 0.00 | 0.00 | 0.00 | 81 | 1017.4 |
| 20260905144552 | 52 | 80 | 1.0 | 4.0 | 0.00 | 0.00 | 0.00 | 80 | 1017.5 |
| 20260905144037 | 52 | 80 | 2.0 | 4.0 | 0.00 | 0.00 | 0.00 | 80 | 1017.7 |
| 20260905143537 | 52 | 80 | 2.0 | 4.0 | 0.00 | 0.00 | 0.00 | 80 | 1017.5 |
| 20260905143059 | 52 | 80 | 2.0 | 4.0 | 0.00 | 0.00 | 0.00 | 81 | 1017.5 |
| 20260905142537 | 52 | 80 | 3.0 | 4.0 | 0.00 | 0.00 | 0.00 | 81 | 1017.5 |
| 20260905142034 | 52 | 0 | 0.0 | 2.0 | 0.00 | 0.00 | 0.00 | 81 | 1017.6 |
| 20260905141554 | 52 | 0 | 0.0 | 2.0 | 0.00 | 0.00 | 0.00 | 80 | 1017.7 |
| 20260905141034 | 52 | 80 | 1.0 | 2.0 | 0.00 | 0.00 | 0.00 | 80 | 1017.5 |
| 20260905140534 | 52 | 80 | 0.0 | 7.0 | 0.00 | 0.00 | 0.00 | 81 | 1017.5 |
| 20260905140050 | 52 | 0 | 2.0 | 7.0 | 0.00 | 0.00 | 0.00 | 80 | 1017.5 |
| 20260905135538 | 52 | 80 | 1.0 | 7.0 | 0.00 | 0.00 | 0.00 | 80 | 1017.4 |
| 20260905135034 | 51 | 80 | 1.0 | 10.0 | 0.00 | 0.00 | 0.00 | 80 | 1017.3 |
| 20260905134558 | 51 | 80 | 3.0 | 10.0 | 0.00 | 0.00 | 0.00 | 81 | 1017.4 |
| 20260905134034 | 51 | 80 | 7.0 | 10.0 | 0.00 | 0.00 | 0.00 | 80 | 1017.4 |
| 20260905133535 | 51 | 80 | 3.0 | 5.0 | 0.00 | 0.00 | 0.00 | 81 | 1017.3 |
| 20260905133054 | 50 | 80 | 0.0 | 3.0 | 0.00 | 0.00 | 0.00 | 81 | 1017.2 |
| 20260905132534 | 50 | 80 | 1.0 | 5.0 | 0.00 | 0.00 | 0.00 | 81 | 1017.2 |
| 20260905132038 | 50 | 80 | 2.0 | 5.0 | 0.00 | 0.00 | 0.00 | 81 | 1017.1 |
| 20260905131550 | 50 | 80 | 2.0 | 5.0 | 0.00 | 0.00 | 0.00 | 80 | 1016.8 |
| 20260905131034 | 50 | 80 | 2.0 | 4.0 | 0.00 | 0.00 | 0.00 | 80 | 1016.8 |
| 20260905130535 | 50 | 0 | 0.0 | 0.0 | 0.00 | 0.00 | 0.00 | 80 | 1017.0 |
| 20260905130051 | 50 | 0 | 0.0 | 0.0 | 0.00 | 0.00 | 0.00 | 80 | 1017.0 |
| 20260905125534 | 50 | 0 | 0.0 | 0.0 | 0.00 | 0.00 | 0.00 | 79 | 1016.8 |
| 20260905125034 | 50 | 0 | 0.0 | 0.0 | 0.00 | 0.00 | 0.00 | 79 | 1016.8 |
| 20260905124551 | 50 | 0 | 0.0 | 0.0 | 0.00 | 0.00 | 0.00 | 79 | 1016.8 |
| 20260905124033 | 51 | 0 | 0.0 | 0.0 | 0.00 | 0.00 | 0.00 | 78 | 1016.7 |
| 20260905123534 | 51 | 0 | 0.0 | 3.0 | 0.00 | 0.00 | 0.00 | 78 | 1016.7 |
| 20260905123059 | 51 | 0 | 0.0 | 3.0 | 0.00 | 0.00 | 0.00 | 78 | 1016.6 |
| 20260905122535 | 51 | 80 | 1.0 | 3.0 | 0.00 | 0.00 | 0.00 | 78 | 1016.7 |
| 20260905122034 | 51 | 0 | 1.0 | 3.0 | 0.00 | 0.00 | 0.00 | 78 | 1016.7 |
| 20260905121552 | 51 | 80 | 0.0 | 3.0 | 0.00 | 0.00 | 0.00 | 78 | 1016.6 |
| 20260905121035 | 51 | 0 | 0.0 | 8.0 | 0.00 | 0.00 | 0.00 | 79 | 1016.6 |
| 20260905120534 | 51 | 80 | 2.0 | 8.0 | 0.00 | 0.00 | 0.00 | 79 | 1016.4 |
| 20260905120050 | 51 | 80 | 4.0 | 7.0 | 0.00 | 0.00 | 0.00 | 80 | 1016.3 |
| 20260905115534 | 50 | 80 | 0.0 | 4.0 | 0.00 | 0.00 | 0.00 | 80 | 1016.2 |
| 20260905115034 | 50 | 0 | 0.0 | 5.0 | 0.00 | 0.00 | 0.00 | 79 | 1016.2 |
| 20260905114558 | 50 | 0 | 1.0 | 5.0 | 0.00 | 0.00 | 0.00 | 79 | 1016.1 |
| 20260905114035 | 51 | 80 | 1.0 | 5.0 | 0.00 | 0.00 | 0.00 | 80 | 1016.4 |
| 20260905113535 | 50 | 80 | 0.0 | 2.0 | 0.00 | 0.00 | 0.00 | 79 | 1016.3 |
| 20260905113053 | 50 | 80 | 0.0 | 3.0 | 0.00 | 0.00 | 0.00 | 79 | 1016.2 |
| 20260905112534 | 50 | 0 | 0.0 | 3.0 | 0.00 | 0.00 | 0.00 | 79 | 1016.2 |
| 20260905112035 | 51 | 0 | 2.0 | 3.0 | 0.00 | 0.00 | 0.00 | 78 | 1016.3 |
| 20260905111552 | 51 | 80 | 1.0 | 3.0 | 0.00 | 0.00 | 0.00 | 77 | 1016.3 |
| 20260905111033 | 51 | 80 | 0.0 | 2.0 | 0.00 | 0.00 | 0.00 | 77 | 1016.4 |
| 20260905110534 | 51 | 0 | 0.0 | 2.0 | 0.00 | 0.00 | 0.00 | 77 | 1016.4 |
| 20260905110106 | 51 | 80 | 1.0 | 5.0 | 0.00 | 0.00 | 0.00 | 77 | 1016.4 |
| 20260905105534 | 51 | 0 | 1.0 | 7.0 | 0.00 | 0.00 | 0.00 | 77 | 1016.4 |
| 20260905105037 | 51 | 80 | 4.0 | 7.0 | 0.00 | 0.00 | 0.00 | 77 | 1016.4 |
| 20260905104558 | 51 | 80 | 0.0 | 5.0 | 0.00 | 0.00 | 0.00 | 77 | 1016.4 |
| 20260905104038 | 51 | 80 | 4.0 | 5.0 | 0.00 | 0.00 | 0.00 | 76 | 1016.2 |
| 20260905103537 | 52 | 80 | 3.0 | 5.0 | 0.00 | 0.00 | 0.00 | 75 | 1016.1 |